Regional Weather Roundup
Issued by NWS

Home | Current Version | Previous Version | Text Only | Print | Product List | Glossary On
Versions: 1 2 3 4 5 6 7 8 9 10 11 12 13 14 15 16 17 18 19 20 21 22 23 24 25 26 27
000
ASUS45 KTFX 291510
RWRMT
MONTANA REGIONAL WEATHER ROUNDUP
NATIONAL WEATHER SERVICE GREAT FALLS MT
900 AM MDT WED MAR 29 2017

NOTE: "FAIR" INDICATES FEW OR NO CLOUDS BELOW 12000 FEET WITH NO
SIGNIFICANT WEATHER AND/OR OBSTRUCTIONS TO VISIBILITY.

MTZ001>007-043-291600-
WEST OF THE DIVIDE

CITY           SKY/WX    TMP DP  RH WIND       PRES   REMARKS
KALISPELL      LGT RAIN  41  34  76 S5        30.04F
MISSOULA       CLOUDY    42  34  73 S5        30.07F
BUTTE          CLOUDY    34  25  69 E3        30.10F
MULLAN PASS    SNOW      31  30  96 VRB5      29.97F VSB 1/4
ANACONDA         N/A     41  27  56 SE3       30.07F
DEER LODGE       N/A     37  28  70 CALM      30.11F
EUREKA           N/A     39  36  87 SE9       30.02F
HAMILTON         N/A     43  30  61 S10       30.06F
PLAINS           N/A     40  33  76 CALM      30.05
RONAN            N/A     43  34  70 CALM      30.08F
$$

MTZ008-052>055-291600-
SOUTHWEST MONTANA

CITY           SKY/WX    TMP DP  RH WIND       PRES   REMARKS
BOZEMAN        PTSUNNY   40  28  62 E5        30.10F
DILLON         PTSUNNY   35  23  61 SW13      30.11F WCI  26
W YELLOWSTONE  CLOUDY    30  25  80 SW13G18   30.20R WCI  20
ENNIS          SUNNY     37  27  65 S18       30.16F WCI  27
$$

MTZ009-010-012-014-046-048-049-054-291600-
EAST SLOPES AND CENTRAL MONTANA

CITY           SKY/WX    TMP DP  RH WIND       PRES   REMARKS
CUT BANK       CLOUDY    40  27  59 W18       29.98S
GREAT FALLS    CLOUDY    42  27  55 SW14      30.02F
MALMSTROM AFB  CLOUDY    43  29  59 SW10      30.04S
HELENA         CLOUDY    43  29  57 CALM      30.08F
AUGUSTA        CLOUDY    38  28  67 S6        30.02F
BOWMANS CRNR   PTSUNNY   39  27  62 SW14      30.03S WCI  31
CHOTEAU          N/A     37  28  70 CALM      30.04S
CONRAD           N/A     40  32  73 SW6       30.03R
FAIRFIELD      PTSUNNY   40  27  60 S10G18    30.03S
POWER          PTSUNNY   40  28  62 SW14      30.01F
RAYNESFORD     PTSUNNY   44  27  51 W9        30.04S
$$

MTZ011-013-016-021-045-047-050-051-291600-
NORTH CENTRAL MONTANA

CITY           SKY/WX    TMP DP  RH WIND       PRES   REMARKS
HAVRE          SUNNY     44  29  55 SW15      30.01S
LEWISTOWN      SUNNY     40  27  59 E5        30.04F
N BAR RANCH      N/A     45  25  45 CALM      30.07F
CHINOOK          N/A     45  28  53 W6        30.01S
DENTON         PTSUNNY   41  29  62 S8        30.00F
GEYSER         PTSUNNY   44  27  50 W20       30.02F
GRASS RANGE      N/A     45  28  50 W10       30.02F
JUDITH GAP       N/A     41  28  61 S8        30.04F
STANFORD         N/A     46  27  47 W8        30.03F
WINIFRED         N/A     44  28  53 SW10      30.03F
$$

MTZ017>020-022>027-061-062-291600-
NORTHEAST MONTANA

CITY           SKY/WX    TMP DP  RH WIND       PRES   REMARKS
GLASGOW        MOSUNNY   43  29  57 SW5       30.01F
JORDAN           N/A     41  35  79 NW3       30.05R
SIDNEY         MOSUNNY   40  39  97 S9        30.05F
WOLF POINT     PTSUNNY   42  36  79 W5        30.03F
MALTA          SUNNY     41  32  70 W3        30.02S
PLENTYWOOD       N/A     37  37 100 SE7       30.00F
POPLAR           N/A     43  36  75 CALM      30.04S
SCOBEY           N/A     42  31  65 SE3       29.97
$$

MTZ028>42-056>058-291600-
SOUTHCENTRAL AND SOUTHEAST MONTANA

CITY           SKY/WX    TMP DP  RH WIND       PRES   REMARKS
BAKER          MOSUNNY   40  38  93 SE3       30.07F
BILLINGS       MOSUNNY   42  29  59 SW9       30.09R
LIVINGSTON     SUNNY     44  28  53 SW20G25   30.09S
MILES CITY     SUNNY     41  36  82 S5        30.07S
BIG TIMBER     SUNNY     46  25  42 W20       30.09F
EKALAKA          N/A     45  37  73 SW8       30.04
FORSYTH          N/A     43  37  81 CALM      30.08S
HARLOWTON        N/A     44  26  48 W16       30.06S
LAUREL           N/A     41  24  51 S2        30.06F
$$

REGIONAL REPORTS...DAKOTAS

CITY           SKY/WX    TMP DP  RH WIND       PRES   REMARKS
WILLISTON      PTSUNNY   38  38 100 S3        30.04F
MINOT          CLOUDY    46  41  82 S7        30.05F
DICKINSON      CLOUDY    41  41 100 SW14      30.06S
BEACH            N/A     43  43 100 S7        30.08F
TIOGA          PTSUNNY   34  34 100 CALM      30.05F FOG
WATFORD CITY     N/A     34  34 100 CALM      30.05F
BISMARCK       SUNNY     48  41  76 S3        30.12F
GRAND FORKS    CLOUDY    42  35  76 S7        30.16S
FARGO          CLOUDY    46  35  65 SE8       30.17F
BUFFALO SD       N/A     42  41  96 SW7       30.03S
RAPID CITY     CLOUDY    43  41  93 CALM      30.10F
$$

REGIONAL REPORTS...WYOMING/IDAHO/WASHINGTON

CITY           SKY/WX    TMP DP  RH WIND       PRES   REMARKS
GILLETTE       SUNNY     45  37  73 SW15      30.09S
SHERIDAN       CLOUDY    39  31  72 CALM      30.09S
BUFFALO WY     CLOUDY    46  26  45 W3        30.10S
CODY           CLOUDY    46  23  40 W8G23     30.10F
YELLOWSTONE LA   N/A     27  23  85 CALM      30.20F
IDAHO FALLS    PTSUNNY   38  31  76 S12       30.23R WCI  30
SALMON         CLOUDY    36  27  69 CALM      30.14F
BOISE          CLOUDY    44  32  62 SE13      30.18R
SPOKANE        LGT RAIN  40  38  93 SE9       29.98F FOG
$$

REGIONAL REPORTS...ALBERTA

CITY           SKY/WX    TMP DP  RH WIND       PRES   REMARKS
EDMONTON       FOG       28  28 100 SW3       29.87S VSB 0
CALGARY        PTSUNNY   41  21  45 S3        29.90S
LETHBRIDGE     PTSUNNY   45  28  53 SW12G20   29.94S
MEDICINE HAT   MOSUNNY   45  30  57 S10       29.93S
WATERTON GATE    N/A     39  28  65 SW14G21     N/A  WCI  31
CARDSTON         N/A     39  27  60 SW6         N/A
MILK RIVER       N/A     43  28  56 SW6         N/A
ONEFOUR          N/A     45  27  49 W8          N/A
$$

REGIONAL REPORTS...SASKATCHEWAN

CITY           SKY/WX    TMP DP  RH WIND       PRES   REMARKS
SWIFT CURRENT  SUNNY     41  28  60 W21G31    29.86F
REGINA         PTSUNNY   41  36  81 S8        29.91F
SASKATOON      PTSUNNY   39  32  75 S6        29.86S
CYPRESS HILLS    N/A     41  21  45 W10G17      N/A
VAL MARIE        N/A     43  28  56 W12G17      N/A
ROCKGLEN         N/A     43  28  56 SW14        N/A
ASSINIBOIA       N/A     30 N/A N/A NE1         N/A
$$




USA.gov is the U.S. government's official web portal to all federal, state and local government web resources and services.